Temp
62 63 62 66 66 66 66 67 66 66 65 65 65 65 65 65 65 59 57 65 68 71 68 66 68 67 68 65 65 62 49 44 49 51 52 54 55 53 54 55 55 56 56 59 62
62 62 62 64 66 66 66 66 66 66 65 64 65 65 64 64 58 55 66 70 71 70 66 64 63 64 60 60 62 58 49 52 57 56 52 55 56 57 55 52 51 52 57 61 63
62 62 62 63 65 66 66 65 65 65 64 64 64 64 64 63 56 55 69 70 70 70 67 66 66 63 58 57 57 57 52 56 58 60 58 56 55 54 54 49 56 56 55 60 62
62 61 61 59 65 66 66 65 65 65 65 64 64 64 64 63 43 59 69 69 69 67 67 65 62 58 55 56 58 54 59 58 59 58 57 55 56 54 55 56 59 60 59 60 61
59 60 61 60 63 65 65 65 65 65 64 64 63 63 61 52 52 64 67 67 65 64 65 61 59 58 54 56 58 53 57 58 59 60 56 58 55 53 54 53 55 59 60 60 61
60 60 60 59 62 64 65 64 65 65 64 63 63 63 57 47 63 63 64 63 62 64 63 63 58 60 56 55 57 57 57 56 58 57 57 57 51 52 52 53 55 58 57 59 60
60 60 59 60 62 63 64 64 64 65 64 63 63 62 55 55 62 62 63 61 62 64 61 62 62 59 55 54 57 57 52 54 56 57 55 56 50 53 52 54 54 55 56 56 58
58 60 59 60 61 62 63 63 64 64 63 62 63 60 51 61 60 61 62 62 66 66 64 63 63 55 54 52 54 52 51 43 49 53 54 55 47 53 52 53 52 52 53 55 56
57 58 58 59 60 61 63 63 63 64 63 63 57 56 49 61 57 59 60 59 62 61 63 66 61 53 52 48 45 47 44 41 48 51 50 51 48 52 51 52 51 51 52 54 54
57 58 58 59 60 61 62 64 63 61 61 58 58 51 51 49 54 57 60 62 57 57 56 55 52 45 45 46 38 41 42 45 45 49 47 46 49 49 49 50 51 51 52 52 54
57 58 59 59 60 62 60 58 52 51 52 48 48 49 50 55 59 55 61 60 57 54 46 49 43 38 43 48 50 50 43 44 47 51 50 48 50 54 50 46 48 48 49 51 53
56 56 58 59 60 62 60 54 54 56 43 49 51 51 53 58 49 52 61 52 49 45 47 43 39 48 50 49 49 45 44 45 47 49 48 47 49 48 48 49 49 51 48 51 50
55 55 58 58 60 59 57 57 61 60 45 47 51 50 51 54 47 49 55 51 49 43 44 42 47 51 49 47 45 42 41 43 45 44 44 43 46 45 48 47 49 50 50 50 52
54 55 57 58 55 57 54 60 65 60 37 38 44 49 51 52 45 53 56 53 46 44 45 43 51 48 46 45 46 40 49 48 44 45 39 42 34 42 44 48 47 50 48 50 50
54 54 55 58 57 52 55 62 63 57 27 41 43 56 51 50 47 48 54 52 43 43 44 41 43 43 44 46 49 45 50 47 45 42 39 37 34 43 38 43 45 48 49 52 52
53 54 53 56 58 59 57 56 53 36 25 35 43 42 45 43 44 48 49 52 51 44 45 42 43 48 48 49 50 50 46 44 42 39 31 40 36 36 42 43 47 51 51 54 50
53 54 51 59 53 59 55 49 33 29 36 31 34 41 42 37 39 45 42 38 36 35 34 38 40 41 46 45 48 50 43 31 31 27 31 33 32 46 45 46 50 56 56 54 47
52 52 53 58 59 58 52 41 28 32 34 37 38 42 35 40 36 40 39 34 38 37 34 33 30 39 45 46 40 44 43 30 23 24 32 32 32 41 48 48 49 49 49 48 45
51 50 53 54 59 58 45 33 34 34 37 35 39 35 31 38 36 38 38 38 39 39 33 33 34 40 42 46 49 42 40 42 32 19 25 31 36 44 45 47 45 46 45 46 46
45 46 50 55 57 52 42 37 35 40 41 43 32 36 28 36 32 33 37 43 39 43 43 38 31 38 43 48 45 41 47 35 35 22 22 28 29 38 40 48 49 46 46 46 45
44 39 50 56 54 44 35 39 38 43 46 40 34 32 35 35 33 35 36 38 45 42 42 40 36 33 41 39 38 37 36 38 40 34 26 23 33 40 49 51 53 52 51 48 44
38 32 46 55 40 39 38 41 44 40 42 41 40 37 38 39 32 37 35 43 50 48 41 42 35 28 33 38 43 43 41 42 34 30 28 29 36 43 45 46 47 48 47 44 43
32 33 45 50 34 34 42 41 43 39 40 40 39 40 41 39 33 36 38 46 49 47 43 43 34 24 30 36 36 36 39 40 41 35 32 30 37 45 42 45 47 45 43 42 41
33 31 36 44 41 39 38 39 36 42 41 42 40 42 40 39 38 35 36 42 46 50 47 50 38 34 29 33 36 32 37 40 40 32 33 35 40 45 49 51 48 45 43 41 41
33 30 31 33 36 40 43 40 35 36 40 42 38 41 39 33 35 33 36 38 41 46 47 45 36 35 34 36 41 38 39 40 39 42 36 41 39 44 48 52 50 47 42 41 40
32 31 32 32 37 40 42 38 36 36 38 37 38 40 40 35 39 32 37 37 39 39 42 40 28 34 28 35 36 35 40 42 44 44 42 44 44 52 49 47 47 47 43 42 42
36 36 33 32 36 37 38 40 38 39 38 42 42 40 38 41 47 49 48 46 44 43 43 39 31 26 24 27 31 27 37 38 41 44 45 40 49 48 48 47 49 47 44 45 45
MSLP
1006.82 1007.32 1007.78 1007.83 1008.35 1008.95 1009.61 1010.14 1010.67 1011.39 1012.36 1013.12 1013.60 1014.19 1014.66 1015.18 1015.38 1015.28 1015.23 1014.63 1014.62 1014.35 1014.88 1015.03 1015.45 1015.62 1015.06 1015.80 1015.82 1016.64 1017.52 1018.17 1017.77 1017.59 1016.87 1016.96 1017.09 1017.54 1017.79 1018.42 1018.76 1018.97 1019.07 1019.05 1019.94
1006.21 1006.57 1007.21 1007.19 1007.65 1008.33 1009.09 1009.59 1010.21 1010.90 1012.10 1012.83 1013.48 1014.12 1014.63 1015.19 1015.39 1015.13 1014.39 1014.23 1014.35 1014.58 1015.03 1015.41 1015.86 1015.59 1016.09 1016.43 1016.80 1017.35 1017.50 1017.41 1016.89 1016.67 1016.53 1016.64 1016.73 1017.31 1017.89 1018.59 1019.00 1019.29 1019.38 1019.47 1020.12
1005.10 1005.37 1006.18 1006.08 1006.72 1007.57 1008.39 1009.13 1009.75 1010.50 1011.68 1012.61 1013.33 1013.99 1014.64 1015.01 1015.35 1014.19 1013.91 1014.25 1014.26 1014.63 1014.84 1015.12 1015.67 1016.01 1016.54 1016.76 1017.11 1017.36 1017.50 1017.27 1016.34 1016.22 1016.26 1016.59 1016.92 1017.20 1017.70 1018.57 1018.40 1018.80 1019.52 1019.87 1020.22
1004.10 1004.65 1005.03 1006.24 1005.71 1006.70 1007.68 1008.48 1009.35 1009.98 1011.33 1012.32 1013.10 1013.71 1014.46 1015.04 1014.89 1013.39 1013.30 1014.01 1014.24 1014.55 1014.86 1015.25 1015.81 1016.48 1017.06 1017.16 1017.42 1017.60 1017.44 1017.33 1016.51 1016.28 1016.30 1016.61 1016.70 1017.21 1017.51 1017.30 1017.31 1017.89 1018.51 1019.42 1020.10
1003.67 1004.02 1004.54 1005.02 1005.02 1005.95 1006.96 1007.95 1008.68 1009.61 1010.97 1012.02 1012.69 1013.58 1014.66 1015.07 1014.11 1013.37 1013.44 1013.88 1014.45 1014.74 1014.77 1014.99 1015.66 1016.52 1016.82 1017.09 1017.38 1017.89 1017.55 1017.20 1016.61 1016.21 1015.99 1016.39 1016.72 1017.03 1017.29 1017.38 1017.64 1018.15 1019.19 1019.43 1020.02
1003.38 1003.50 1003.67 1003.93 1004.17 1005.23 1006.22 1007.35 1008.29 1009.22 1010.46 1011.63 1012.35 1013.13 1014.07 1013.98 1013.36 1013.51 1013.69 1014.32 1014.58 1014.78 1014.90 1015.01 1015.71 1016.30 1017.05 1017.51 1017.76 1017.92 1017.60 1017.30 1016.59 1016.38 1016.11 1016.37 1016.82 1016.97 1017.26 1017.73 1018.39 1018.52 1019.17 1019.66 1019.92
1002.77 1002.79 1002.90 1003.50 1003.32 1004.63 1005.70 1006.75 1007.87 1008.90 1009.86 1010.93 1011.75 1012.70 1013.53 1013.25 1013.02 1013.38 1014.02 1014.44 1014.64 1014.84 1015.32 1015.71 1015.78 1016.61 1017.75 1018.06 1018.16 1017.97 1018.05 1017.45 1016.71 1015.99 1016.17 1016.31 1016.93 1017.04 1017.48 1018.16 1018.78 1019.19 1019.47 1019.88 1020.15
1002.31 1002.11 1002.47 1002.62 1002.92 1004.25 1005.29 1006.39 1007.69 1008.64 1009.65 1010.10 1011.62 1012.17 1012.90 1012.87 1012.91 1013.51 1014.11 1014.79 1015.19 1014.94 1015.25 1015.77 1016.20 1017.67 1018.23 1019.13 1018.84 1018.63 1018.55 1017.97 1016.61 1016.43 1016.03 1016.47 1016.76 1016.83 1017.62 1018.45 1019.18 1019.73 1019.61 1020.02 1020.17
1001.39 1000.91 1001.06 1001.56 1002.61 1003.97 1005.06 1006.11 1007.27 1008.36 1009.62 1010.07 1011.52 1011.96 1012.94 1012.94 1013.46 1013.93 1014.17 1014.67 1015.43 1015.59 1015.79 1016.17 1016.65 1018.26 1018.90 1019.15 1019.52 1019.03 1018.72 1018.47 1017.34 1017.02 1016.50 1016.56 1017.12 1017.01 1017.77 1018.50 1019.21 1019.59 1019.79 1019.97 1020.31
1000.38 1000.17 1000.73 1001.54 1002.31 1003.81 1004.76 1005.80 1007.02 1008.65 1009.95 1010.23 1011.01 1011.96 1013.19 1012.72 1013.11 1013.60 1014.15 1014.56 1015.43 1015.93 1016.43 1017.16 1017.91 1018.31 1018.91 1018.51 1017.85 1018.87 1019.24 1018.67 1017.89 1017.26 1017.08 1016.87 1016.95 1017.31 1018.13 1018.63 1018.96 1019.52 1019.67 1019.93 1020.15
999.58 999.75 1000.19 1000.48 1002.16 1003.31 1004.71 1006.00 1006.86 1008.42 1008.78 1008.90 1009.84 1010.77 1011.26 1012.28 1012.89 1013.77 1013.99 1014.71 1015.88 1016.29 1016.84 1017.59 1018.00 1017.54 1017.54 1017.83 1018.13 1018.32 1018.64 1018.65 1017.69 1017.33 1017.13 1016.96 1017.13 1017.21 1017.99 1018.73 1019.17 1019.65 1019.46 1019.75 1019.86
999.92 999.82 999.41 1000.73 1001.86 1002.86 1003.91 1003.90 1005.28 1004.30 1008.72 1009.54 1010.56 1010.94 1011.12 1011.21 1013.20 1014.18 1014.20 1014.74 1015.82 1016.30 1017.21 1018.11 1017.12 1017.77 1017.99 1018.23 1018.00 1018.51 1018.67 1018.54 1017.99 1017.87 1017.91 1017.17 1017.11 1017.24 1018.02 1018.13 1018.38 1018.67 1019.17 1019.13 1019.58
1000.31 999.76 999.73 1000.83 1001.83 1002.86 1002.61 1003.61 1004.51 1004.98 1008.34 1010.09 1010.44 1010.46 1011.01 1011.24 1012.82 1013.43 1014.27 1014.74 1015.35 1016.26 1016.73 1016.79 1016.95 1017.39 1017.63 1017.57 1017.85 1018.56 1018.77 1018.71 1018.44 1018.43 1018.36 1018.27 1017.74 1017.28 1017.33 1017.72 1017.87 1018.10 1018.58 1018.84 1018.79
1000.07 1000.11 999.72 1000.81 1001.88 1001.57 1002.29 1003.25 1004.02 1004.92 1008.33 1010.20 1010.30 1010.15 1010.80 1011.51 1013.21 1013.55 1013.72 1014.48 1015.71 1015.92 1016.96 1017.32 1016.88 1016.91 1017.39 1017.47 1017.78 1018.21 1018.56 1018.70 1018.55 1018.67 1019.05 1019.04 1017.66 1017.24 1017.14 1017.31 1017.35 1017.53 1017.97 1018.15 1018.44
1000.50 1000.41 999.70 1000.70 1000.03 1000.92 1002.58 1003.35 1003.90 1005.61 1007.48 1009.75 1010.35 1010.41 1010.93 1011.41 1012.49 1013.86 1013.91 1014.29 1015.34 1015.95 1017.02 1017.24 1017.06 1017.11 1016.94 1016.66 1017.61 1017.65 1017.91 1018.41 1018.90 1019.05 1019.17 1019.50 1019.26 1016.30 1017.02 1016.95 1016.95 1017.03 1017.15 1017.09 1017.41
1000.30 1000.26 999.79 1000.56 1000.50 1001.19 1002.80 1004.00 1005.15 1006.65 1007.98 1009.83 1010.32 1010.58 1010.94 1011.70 1012.48 1013.74 1014.17 1014.51 1015.73 1016.61 1017.12 1017.62 1017.75 1017.02 1016.29 1016.60 1017.03 1017.42 1018.45 1019.67 1019.91 1019.92 1019.78 1018.50 1019.14 1016.59 1015.91 1015.74 1016.08 1015.85 1016.17 1016.04 1016.66
1000.14 999.31 1000.16 999.60 999.53 1000.99 1002.20 1004.62 1005.75 1006.47 1008.89 1009.70 1009.69 1010.19 1011.10 1012.16 1013.06 1013.40 1013.94 1015.10 1015.53 1016.81 1017.39 1018.07 1017.87 1017.48 1016.58 1016.56 1016.87 1017.27 1018.12 1019.89 1021.01 1020.29 1018.77 1018.92 1019.12 1015.35 1014.52 1014.55 1014.71 1014.78 1014.87 1015.40 1016.15
999.20 999.20 999.23 998.95 999.67 1001.14 1002.48 1004.45 1005.28 1006.13 1007.02 1008.23 1009.29 1010.90 1011.89 1012.40 1013.53 1013.50 1014.45 1015.20 1015.58 1015.82 1016.99 1017.27 1018.11 1017.51 1016.31 1015.75 1015.95 1016.27 1017.00 1018.21 1018.87 1019.60 1019.10 1019.36 1017.28 1014.33 1013.88 1013.73 1014.16 1014.57 1014.53 1015.22 1016.07
998.92 998.91 997.80 998.45 999.47 1000.49 1002.67 1003.39 1003.11 1005.05 1006.51 1007.58 1009.42 1010.47 1011.64 1011.98 1012.17 1013.48 1013.71 1014.00 1014.63 1014.55 1015.48 1016.59 1016.83 1016.63 1016.48 1016.15 1016.28 1017.00 1016.90 1017.58 1018.61 1020.19 1019.58 1018.04 1016.09 1014.47 1013.78 1013.87 1014.02 1014.43 1014.92 1014.92 1015.08
999.31 998.80 996.95 998.43 999.02 1000.75 1001.92 1001.93 1003.19 1004.09 1005.63 1006.55 1007.49 1009.10 1010.40 1011.25 1011.26 1011.98 1012.96 1012.72 1013.03 1013.42 1013.91 1015.05 1016.00 1016.11 1016.53 1016.30 1016.73 1017.36 1017.86 1018.43 1018.63 1019.59 1019.17 1017.29 1016.14 1014.03 1013.57 1013.65 1013.63 1014.09 1014.27 1014.39 1015.04
999.61 999.58 996.97 998.16 999.16 1000.59 1000.75 1001.74 1002.79 1003.63 1003.83 1005.22 1006.69 1008.30 1008.78 1009.30 1010.21 1010.78 1011.14 1011.42 1011.69 1012.87 1013.95 1014.43 1014.97 1016.34 1016.37 1016.06 1016.21 1017.62 1017.51 1017.77 1018.20 1018.40 1017.87 1016.58 1014.79 1013.10 1012.63 1012.82 1012.89 1012.86 1013.15 1013.89 1014.53
1000.25 999.86 998.17 997.18 999.02 1000.33 1000.50 1001.31 1002.29 1003.15 1003.40 1004.13 1005.19 1006.15 1006.98 1008.44 1009.73 1010.49 1010.52 1010.71 1010.68 1011.57 1013.20 1013.96 1014.64 1016.07 1016.27 1016.11 1015.98 1016.55 1016.43 1016.82 1017.59 1017.53 1017.56 1016.65 1012.98 1012.38 1012.51 1012.66 1012.73 1012.91 1013.53 1014.10 1014.58
1000.43 999.49 998.32 997.61 998.10 999.80 1000.42 1001.50 1001.65 1002.85 1003.35 1003.96 1004.72 1005.37 1006.27 1007.98 1009.80 1010.08 1010.39 1010.44 1010.57 1010.88 1011.48 1012.50 1013.94 1015.90 1016.59 1016.59 1016.47 1016.53 1016.42 1016.35 1017.27 1017.31 1016.44 1016.50 1012.07 1011.83 1012.28 1012.18 1012.21 1012.93 1013.69 1014.40 1015.17
1001.27 1000.42 999.58 997.39 998.18 998.63 999.99 1001.51 1001.93 1002.84 1003.23 1003.53 1004.35 1004.95 1006.22 1007.70 1008.20 1009.36 1009.88 1009.99 1010.07 1010.14 1010.88 1011.92 1013.28 1013.83 1014.45 1014.23 1015.41 1016.16 1016.10 1016.28 1016.62 1016.79 1015.37 1014.27 1011.95 1012.13 1011.75 1011.70 1011.67 1012.86 1013.74 1014.43 1015.31
1001.23 1000.69 1000.05 998.10 998.92 999.51 1000.20 1001.17 1001.67 1002.71 1003.10 1003.08 1004.17 1004.41 1005.27 1007.00 1008.12 1008.49 1009.02 1009.79 1010.21 1010.51 1011.48 1012.16 1012.74 1013.60 1014.11 1014.11 1014.06 1014.31 1014.59 1015.02 1015.14 1013.72 1013.99 1010.25 1012.07 1012.08 1011.92 1011.75 1011.80 1012.33 1013.38 1014.24 1014.93
1001.91 1001.76 1000.58 999.67 999.41 1000.09 1000.09 1000.65 1001.53 1002.64 1002.79 1003.03 1003.47 1004.42 1004.82 1005.58 1006.01 1007.60 1008.34 1009.15 1009.76 1011.29 1011.62 1012.39 1013.31 1014.04 1015.02 1014.66 1014.28 1014.10 1013.87 1013.29 1012.79 1011.83 1011.96 1010.86 1010.62 1011.24 1011.48 1011.33 1011.60 1012.11 1013.17 1013.81 1013.97
1001.58 1001.87 1001.38 1000.64 1000.07 1000.26 999.21 999.52 1000.65 1001.63 1002.93 1003.03 1003.56 1004.43 1005.15 1005.12 1005.41 1006.30 1007.17 1008.23 1009.03 1010.04 1011.50 1012.60 1013.56 1014.85 1015.66 1015.39 1014.92 1014.61 1012.26 1012.48 1012.02 1010.91 1009.99 1010.72 1008.32 1010.39 1010.54 1010.81 1010.91 1011.66 1012.39 1012.62 1012.60
Wind_Speed
25 25 21 28 27 25 24 23 23 25 22 21 18 15 11 9 4 2 6 5 4 6 5 2 2 3 4 4 5 3 5 2 4 5 5 4 4 2 2 6 1 1 5 4 13
28 27 21 29 30 28 26 24 23 25 23 21 18 15 13 9 3 4 5 4 6 10 6 6 3 3 5 2 3 3 3 6 5 4 4 6 5 10 5 4 1 2 5 13 17
25 26 29 30 32 30 27 25 24 26 23 21 20 17 13 6 3 8 10 6 6 7 5 4 4 3 4 3 4 2 2 3 4 4 3 4 4 4 8 3 8 9 11 16 17
26 23 21 17 32 31 28 26 24 27 26 22 22 19 13 5 8 3 18 11 7 4 6 8 5 6 5 6 2 3 2 4 6 1 3 4 6 6 7 7 3 12 20 17 18
10 20 24 18 31 31 28 26 26 26 25 23 24 22 9 6 7 5 13 10 5 2 7 7 5 5 6 6 5 3 5 6 6 7 2 5 2 3 6 4 3 13 14 16 16
18 19 23 21 33 31 29 26 26 27 28 26 25 22 6 11 4 3 9 8 5 3 4 5 6 2 6 4 7 2 4 8 6 2 2 3 1 2 2 4 7 15 15 12 14
18 21 21 27 30 28 27 26 26 26 28 27 28 11 7 10 2 8 8 5 5 1 6 2 7 5 2 5 5 3 4 8 6 4 1 4 1 7 3 6 8 9 11 9 9
15 26 24 27 28 27 26 25 26 27 28 28 27 7 4 3 4 8 6 5 5 6 6 7 12 9 4 2 3 2 3 5 4 4 4 6 8 4 6 10 10 8 7 8 9
11 20 19 22 27 27 26 25 27 29 29 27 10 8 4 7 5 6 6 13 9 5 8 8 7 4 3 9 2 2 6 2 7 3 2 5 6 4 6 9 9 9 8 8 6
11 19 18 30 27 29 27 27 29 27 21 10 5 9 5 8 6 7 4 14 7 5 6 5 4 4 3 11 13 9 8 5 6 4 0 4 7 3 3 6 9 8 8 8 8
11 19 27 28 29 30 27 19 14 15 4 3 11 3 12 9 5 4 7 15 6 3 6 1 4 11 15 16 9 13 6 6 3 3 3 7 7 10 5 3 7 9 8 7 10
14 16 23 23 28 34 24 16 15 9 14 4 14 4 5 12 10 5 13 9 9 12 8 6 13 7 10 11 11 1 8 11 4 4 2 3 13 6 6 7 9 10 9 12 7
9 13 20 23 30 26 18 14 19 13 7 4 5 5 7 8 6 16 10 4 13 9 15 8 2 13 8 10 8 6 7 6 5 1 1 2 8 5 6 5 5 7 7 6 12
10 9 23 25 23 18 14 15 22 6 6 5 5 3 4 9 6 3 6 5 3 9 10 2 4 17 12 14 12 8 11 6 4 7 6 1 7 6 7 10 8 10 9 11 11
9 10 9 29 13 16 12 18 10 4 9 13 6 2 5 10 17 6 2 5 7 8 6 3 2 14 17 17 15 5 5 5 2 2 3 4 3 7 2 9 7 11 12 13 14
10 11 22 22 9 17 16 12 5 7 5 9 7 9 12 3 3 9 5 6 3 5 3 3 3 4 8 9 19 9 9 4 3 3 4 11 7 6 9 8 8 10 12 14 12
10 12 12 17 17 20 17 9 6 7 9 9 10 13 13 6 6 16 13 7 7 8 6 2 4 5 3 8 4 16 10 3 5 2 13 1 6 16 5 9 9 16 18 14 8
12 8 12 11 19 24 15 9 6 6 10 5 10 20 8 15 3 7 12 8 5 6 5 7 6 9 3 6 5 18 13 7 9 6 6 3 10 9 10 8 7 9 7 6 10
9 2 7 11 22 19 15 14 10 11 8 11 16 19 5 7 10 11 17 14 10 9 8 7 6 3 4 4 6 5 17 2 4 2 4 7 9 8 7 9 6 10 6 11 11
2 2 12 23 20 16 15 15 7 10 16 22 10 8 10 19 7 10 19 17 10 11 4 8 3 4 9 6 5 2 5 7 1 3 5 4 5 8 3 11 11 10 13 12 8
0 1 11 24 13 14 17 10 6 6 18 8 9 9 10 17 8 15 21 3 10 15 5 7 5 3 6 7 12 7 5 4 3 4 4 0 8 9 11 12 12 13 10 8 8
2 3 2 20 12 7 15 8 6 7 2 6 7 6 12 18 5 12 14 9 20 19 16 7 6 4 6 4 6 9 14 15 8 12 2 1 10 2 8 8 6 8 7 6 7
1 2 3 12 15 12 12 2 4 9 6 5 6 4 6 13 7 5 9 12 16 17 19 10 3 4 4 4 2 10 7 6 13 2 10 6 11 1 6 7 7 7 6 5 5
2 3 2 6 3 18 22 10 7 5 5 5 7 7 11 11 0 12 10 6 14 18 6 13 4 8 11 5 9 8 17 14 15 7 11 21 18 10 9 10 5 6 5 6 6
2 2 2 7 7 21 19 9 7 8 3 6 3 10 12 7 6 5 5 4 4 10 8 6 9 5 1 1 11 10 21 25 22 22 12 30 16 9 10 10 6 4 3 6 7
2 1 3 3 11 22 20 21 11 5 7 6 10 10 6 9 11 9 9 5 9 3 8 0 3 4 3 6 1 5 14 22 29 28 23 26 31 12 6 4 6 9 8 9 10
1 3 1 4 9 15 20 30 19 11 5 6 11 9 6 6 10 11 7 9 12 14 15 8 7 4 5 2 2 5 17 14 13 15 22 20 27 9 11 11 10 6 9 12 15
Wind_Direction
223 232 257 211 201 197 196 193 188 185 184 183 174 167 155 150 158 125 209 211 186 141 147 89 54 272 55 35 64 90 67 193 224 157 235 160 140 123 95 119 5 130 154 179 134
217 227 228 229 201 196 194 193 191 182 180 178 171 160 144 152 98 238 245 221 166 143 132 166 162 27 60 65 96 122 114 215 207 207 222 192 168 158 130 124 192 52 28 123 143
220 221 228 227 199 195 192 192 190 174 178 176 165 154 140 152 42 241 204 205 161 176 159 130 117 65 85 20 22 75 202 343 282 230 191 192 175 171 123 216 212 184 153 152 161
229 220 221 257 195 193 190 187 188 178 180 175 162 145 143 195 193 254 173 173 172 172 119 127 125 122 158 153 135 68 252 290 290 30 148 187 135 171 185 213 225 169 164 158 175
249 232 214 233 202 191 185 183 183 181 173 172 155 142 132 198 240 310 163 150 123 163 147 137 124 141 144 122 91 88 277 306 315 310 201 143 196 195 212 342 109 135 161 169 176
238 238 221 249 193 188 182 180 181 177 170 168 153 143 150 206 177 122 139 121 121 103 133 128 149 156 81 86 158 184 277 283 274 294 179 171 134 184 164 119 123 150 170 175 178
244 235 211 223 180 182 181 179 179 179 170 160 148 153 165 189 97 119 136 148 133 119 142 31 116 92 156 100 4 341 302 289 245 165 164 148 36 230 140 140 150 172 171 168 183
269 213 198 204 176 179 179 176 181 173 162 154 157 122 176 142 88 102 136 112 139 29 93 105 98 85 80 337 37 58 280 256 299 180 142 124 251 247 158 150 177 189 174 175 188
308 192 187 198 171 179 177 177 177 161 164 149 137 143 161 122 131 134 161 157 124 39 68 98 70 96 77 143 102 227 243 275 315 262 129 140 249 268 167 173 188 190 188 193 207
293 221 204 189 171 178 171 162 157 148 140 112 89 100 174 188 135 120 134 147 119 107 77 71 85 98 130 174 198 174 211 251 226 223 275 155 253 285 190 192 199 195 196 199 205
301 228 195 162 172 173 149 152 163 167 191 100 140 68 130 133 94 103 141 147 104 160 143 158 162 202 183 194 140 203 177 231 246 244 186 206 236 243 191 187 219 223 202 214 220
319 289 164 169 175 166 163 168 151 129 101 12 157 110 116 125 118 129 149 144 165 176 125 131 226 189 163 183 206 106 216 228 294 340 258 190 248 247 190 221 212 213 208 212 212
300 293 165 176 178 164 166 158 135 120 95 63 137 108 152 97 124 158 162 145 169 162 177 184 209 162 170 183 161 201 217 234 233 121 130 340 287 232 226 228 204 212 221 217 218
299 272 194 178 176 162 168 148 142 115 96 127 183 172 115 127 69 131 159 131 76 172 162 204 217 177 187 194 177 193 193 208 155 155 229 351 267 261 216 232 207 226 203 225 218
272 231 251 189 159 174 144 161 138 131 182 152 150 126 153 152 134 224 156 60 142 145 147 174 180 183 195 194 177 190 152 154 158 133 102 232 239 237 122 239 234 235 226 225 223
278 229 301 187 180 153 148 123 53 135 173 160 133 173 145 123 131 131 136 69 106 102 41 125 289 216 194 168 179 145 89 18 47 118 247 209 196 248 204 195 226 227 230 226 213
300 234 282 177 173 143 131 137 132 173 157 158 170 167 152 136 111 165 164 137 144 140 173 106 262 304 210 132 125 166 149 171 228 187 234 0 163 239 225 220 212 216 224 227 199
324 295 257 170 143 144 151 157 151 140 167 133 134 144 144 142 82 148 146 162 222 118 130 157 204 206 223 189 175 193 177 173 188 205 223 107 238 251 225 224 230 246 251 215 195
337 260 206 151 155 154 154 174 171 156 156 127 117 145 146 190 137 148 189 185 182 170 141 163 243 121 223 166 157 170 198 244 82 26 75 204 281 294 259 273 265 251 245 235 211
342 313 175 157 157 156 171 192 118 134 131 147 140 166 163 173 129 170 173 201 176 172 168 195 142 203 192 119 59 95 171 206 179 203 234 249 280 233 233 230 227 237 235 235 221
329 162 156 148 128 158 188 169 114 160 135 141 143 156 169 174 152 180 184 243 168 177 146 151 113 12 131 211 185 142 208 204 320 187 202 219 260 215 204 221 228 231 243 245 204
19 212 277 149 151 190 172 147 134 151 270 113 105 111 165 160 116 173 191 192 185 160 190 199 122 142 189 332 160 200 203 201 193 206 239 33 255 196 237 274 268 268 247 204 178
176 319 317 204 169 179 143 148 114 147 151 149 114 138 145 154 138 169 176 219 176 167 171 170 165 84 34 337 74 210 199 165 216 360 238 238 250 236 243 262 256 268 243 225 193
130 190 291 213 74 160 164 168 114 151 144 115 115 110 116 162 54 179 170 174 177 193 134 155 155 159 186 208 137 189 195 193 189 202 246 252 269 303 300 297 246 213 213 188 196
348 341 345 184 152 172 170 150 114 152 192 151 89 158 149 133 157 142 131 100 114 169 169 175 204 157 127 189 172 178 192 200 209 217 213 241 243 216 246 274 309 300 181 183 197
150 26 297 357 136 171 174 184 149 144 147 187 135 162 155 148 181 154 122 158 166 149 156 125 230 117 1 339 244 201 200 202 211 216 227 245 261 255 255 256 239 224 193 211 213
186 138 27 352 158 170 192 179 174 131 28 125 140 127 135 176 162 164 149 141 156 165 183 148 131 101 227 327 65 320 224 202 213 215 217 230 244 180 226 237 243 240 201 219 218